EUTELSAT 172B

Last updated on Wed Oct 29 2025 00:02:49 GMT+0000 (Coordinated Universal Time)

1 42741U 17029B 25300.64990716 .00000006 00000+0 00000+0 0 9993 2 42741 0.0178 181.6096 0000307 242.5498 18.1045 1.00272007 31395
UTC large
Height (km)
Speed (km/s)
/
Latitude / Longitude
Inclination (degrees)
Orbital Period (minutes)
Azimuth
Elevation
Range (km)
Doppler Factor

Next 0 passes for location: London (51.5072 / 0.1276)

Sorry there are no passes over London.